This is the latest recevied weather packets stored in our database for station/object K4AGR-13. If no packets are shown the sender has not sent any weather packets the latest 10 day(s).
| Time | Temp. | Humidity | Pressure | Rain* | Wind** | Luminosity | Snow |
|---|---|---|---|---|---|---|---|
| 1777763335 | 21.67° C | 48% | 1012.6 hPa | 0 mm | - | 133 W/m² | - |
| 1777763033 | 21.67° C | 48% | 1012.5 hPa | 0 mm | - | 122 W/m² | - |
| 1777762730 | 21.67° C | 49% | 1012.5 hPa | 0 mm | - | 166 W/m² | - |
| 1777762426 | 22.22° C | 48% | 1012.5 hPa | 0 mm | - | 159 W/m² | - |
| 1777762123 | 22.22° C | 50% | 1012.5 hPa | 0 mm | - | 229 W/m² | - |
| 1777761819 | 22.22° C | 49% | 1012.4 hPa | 0 mm | - | 248 W/m² | - |
| 1777761517 | 22.22° C | 47% | 1012.3 hPa | 0 mm | - | 251 W/m² | - |
| 1777761215 | 22.22° C | 47% | 1012.3 hPa | 0 mm | - | 268 W/m² | - |
| 1777760912 | 22.22° C | 47% | 1012.5 hPa | 0 mm | - | 287 W/m² | - |
| 1777760610 | 22.22° C | 48% | 1012.3 hPa | 0 mm | - | 308 W/m² | - |
| 1777760305 | 22.22° C | 48% | 1012.3 hPa | 0 mm | - | 328 W/m² | - |
| 1777760002 | 22.78° C | 46% | 1012.3 hPa | 0 mm | - | 361 W/m² | - |
| 1777759699 | 22.78° C | 48% | 1012.1 hPa | 0 mm | - | 383 W/m² | - |
| 1777759395 | 22.78° C | 46% | 1012.1 hPa | 0 mm | - | 403 W/m² | - |
| 1777759092 | 22.22° C | 49% | 1012.1 hPa | 0 mm | - | 423 W/m² | - |
| 1777758789 | 22.22° C | 50% | 1012 hPa | 0 mm | - | 442 W/m² | - |
| 1777758486 | 22.78° C | 47% | 1012 hPa | 0 mm | - | 457 W/m² | - |
| 1777758182 | 22.78° C | 47% | 1012.1 hPa | 0 mm | - | 459 W/m² | - |
| 1777757880 | 23.33° C | 49% | 1011.9 hPa | 0 mm | - | 496 W/m² | - |
| 1777757577 | 23.33° C | 47% | 1012.1 hPa | 0 mm | - | 532 W/m² | - |
| 1777757276 | 22.78° C | 50% | 1011.9 hPa | 0 mm | - | 604 W/m² | - |
| 1777756974 | 22.78° C | 50% | 1011.9 hPa | 0 mm | - | 586 W/m² | - |
| 1777756669 | 22.78° C | 48% | 1011.9 hPa | 0 mm | - | 607 W/m² | - |
| 1777756366 | 22.78° C | 49% | 1011.9 hPa | 0 mm | - | 626 W/m² | - |
| 1777756064 | 22.78° C | 49% | 1011.8 hPa | 0 mm | - | 651 W/m² | - |
* Rain latest hour (hover to see other rain measurements)
** Current wind speed in m/s (hover to see current wind gust speed)